Flag for Norway Weather past 2 weeks in Stavern, Norway

Now
59 °F

Clear.


Feels Like: 59 °F
Forecast: 53 / 63 °F
Wind: 2 mph from North

Location: Torp

Current Time: Jul 30, 2015 at 11:25:01 PM

Latest Report: Jul 30, 2015 at 10:50 PM


Visibility: 10 mi

Pressure: 29.59 "Hg

Humidity: 88%

Dew point: 55 °F

Location of StavernLocation

Historic Weather in Stavern — Graph

°F

Stavern temperature yesterday

Maximum temperature yesterday: 59 °F (at 12:50 PM)
Minimum temperature yesterday: 55 °F (at 12:50 AM)
Average temperature yesterday: 57 °F

Past Weeks' High & Low Weather Summary

 TemperatureHumidityPressure
High70 °F (Jul 22, 2:20 PM)100% (Jul 15, 11:20 PM)30.07 "Hg (Jul 15, 11:20 PM)
Low48 °F (Jul 17, 1:50 AM)35% (Jul 23, 3:50 PM)29.36 "Hg (Jul 29, 2:20 PM)
Average58 °F77%29.66 "Hg
* Reported Jul 15 9:20 PM — Jul 30 9:50 PM, Stavern, Weather by CustomWeather, © 2015

Note: Actual official high and low records may vary slightly from our data, if they occured in-between our weather recording intervals... More about our weather records

Advertising

Stavern weather history for previous 24 hours

 ConditionsComfort  
Time TempWeatherWind HumidityBarometerVisibility
9:50 PM
Thu, Jul 30
61 °FSunny.5 mph88%29.59 "Hg10 mi
9:20 PM61 °FSunny.5 mph88%29.59 "Hg10 mi
8:50 PM63 °FSunny.5 mph83%29.59 "Hg10 mi
8:20 PM63 °FSunny.3 mph83%29.56 "Hg10 mi
7:50 PM64 °FScattered clouds.6 mph73%29.56 "HgN/A
7:20 PM66 °FScattered clouds.7 mph73%29.56 "HgN/A
6:50 PM66 °FScattered clouds.8 mph78%29.56 "HgN/A
6:20 PM66 °FScattered showers. Cloudy.8 mph78%29.56 "HgN/A
5:50 PM64 °FScattered showers. Scattered clouds.7 mph83%29.56 "HgN/A
5:20 PM61 °FScattered showers. Scattered clouds.9 mph94%29.56 "HgN/A
4:50 PM61 °FThundershowers. Partly sunny.16 mph88%29.56 "HgN/A
4:20 PM63 °FScattered showers. Scattered clouds.9 mph83%29.56 "HgN/A
3:50 PM66 °FScattered showers. Scattered clouds.13 mph73%29.56 "HgN/A
3:20 PM66 °FScattered showers. Scattered clouds.3 mph68%29.53 "HgN/A
2:50 PM70 °FScattered showers. Scattered clouds.3 mph57%29.53 "HgN/A
2:20 PM68 °FScattered clouds.8 mph64%29.53 "HgN/A
1:50 PM68 °FScattered clouds.8 mph60%29.53 "HgN/A
1:20 PM68 °FScattered clouds.8 mph60%29.53 "HgN/A
12:50 PM68 °FScattered showers. Scattered clouds.8 mph64%29.53 "HgN/A
12:20 PM66 °FScattered clouds.8 mph68%29.53 "HgN/A
11:50 AM64 °FScattered clouds.12 mph73%29.53 "HgN/A
11:20 AM64 °FSunny.13 mph68%29.53 "Hg10 mi
10:50 AM64 °FSunny.12 mph73%29.53 "Hg10 mi
10:20 AM63 °FSunny.12 mph83%29.50 "Hg10 mi
9:50 AM64 °FSunny.12 mph73%29.50 "Hg10 mi
9:20 AM61 °FSunny.10 mph83%29.50 "Hg10 mi
8:50 AM61 °FSunny.9 mph83%29.50 "Hg10 mi
8:20 AM59 °FSunny.10 mph88%29.50 "Hg10 mi
7:50 AM57 °FSunny.7 mph94%29.50 "Hg10 mi
7:20 AM55 °FSunny.6 mph94%29.47 "Hg10 mi
6:50 AM54 °FSunny.6 mph100%29.47 "Hg10 mi
6:20 AM54 °FSunny.6 mph94%29.47 "Hg10 mi
5:50 AM52 °FClear.5 mph100%29.47 "Hg10 mi
5:20 AM54 °FClear.3 mph100%29.47 "Hg10 mi
4:50 AM54 °FPassing clouds.5 mph94%29.47 "HgN/A
4:20 AM54 °FPassing clouds.5 mph100%29.47 "HgN/A
3:50 AM54 °FPassing clouds.5 mph100%29.47 "HgN/A
3:20 AM55 °FOvercast.5 mph100%29.47 "HgN/A
2:50 AM55 °FPassing clouds.3 mph100%29.47 "Hg6 mi
2:20 AM55 °FPassing clouds.5 mph100%29.47 "HgN/A
1:50 AM55 °FPartly cloudy.5 mph100%29.47 "HgN/A
1:20 AM55 °FPassing clouds.5 mph100%29.47 "HgN/A
12:50 AM55 °FLight fog.7 mph100%29.47 "Hg6 mi
12:20 AM55 °FLight rain. Partly cloudy.2 mph100%29.47 "Hg4 mi
11:50 PM
Wed, Jul 29
55 °FPassing clouds.2 mph100%29.45 "HgN/A
11:20 PM55 °FLight rain. Mostly cloudy.8 mph100%29.45 "Hg1 mi
Weather by CustomWeather, © 2015

See weather overviewHow to use our weather pages